Date String (YYYY-MM-DD hh:mm:ss) UTC,Instrument flags,absolute air pressure of the measurement (hPa),sample flow rate (lpm),inlet stack bypass flow (lpm),air temperature of the measurement (°C),ambient temperature measured by the external sensor (°C),aerosol sample conditioner tube jacket temperature (°C),OPC LED temperature (°C),internal box temperature (°C),relative humidity of the measurement (%),span deviation,mass concentration of particles derived from Lorenz-Mie calculation of OPC scattering (μg/m³),mass concentration of particles derived from Lorenz-Mie calculation of OPC scattering (μg/m³),mass concentration of particles derived from Lorenz-Mie calculation of OPC scattering (μg/m³)
DateTimeUTC,F1_M11,P_M11,Q1_M11,Q2_M11,T1_M11,T2_M11,T3_M11,T4_M11,T5_M11,U1_M11,ZSPAN_M11,X0_M11,X2_M11,X1_M11
2023-10-23 06:00:00,SystemResetWarning,0824.5,5.00,000.00,029.2,027.9,000.0,037.6,030.9,12.6,0000.0,0014.04,0005.00,0003.88
2023-10-23 06:01:00,SystemResetWarning,0824.5,5.00,000.00,029.2,027.9,000.0,037.6,030.9,12.6,0000.0,0014.25,0005.00,0003.87
2023-10-23 06:02:00,SystemResetWarning,0824.5,5.00,000.00,029.3,027.9,000.0,037.6,030.9,12.5,0000.0,0013.62,0004.97,0003.87
2023-10-23 06:03:00,SystemResetWarning,0824.5,5.00,000.00,029.3,027.9,000.0,037.7,030.9,12.5,0000.0,0013.35,0004.93,0003.86
2023-10-23 06:04:00,SystemResetWarning,0824.5,4.99,000.00,029.3,027.9,000.0,037.7,030.9,12.5,0000.0,0013.75,0004.98,0003.87
2023-10-23 06:05:00,SystemResetWarning,0824.5,5.00,000.00,029.3,027.9,000.0,037.7,030.9,12.6,0000.0,0013.86,0004.95,0003.88
2023-10-23 06:06:00,SystemResetWarning,0824.5,5.00,000.00,029.3,027.9,000.0,037.7,030.9,12.7,0000.0,0013.89,0004.91,0003.87
2023-10-23 06:07:00,SystemResetWarning,0824.5,5.00,000.00,029.3,028.0,000.0,037.7,030.9,13.2,0000.0,0014.05,0004.90,0003.87
2023-10-23 06:08:00,SystemResetWarning,0824.5,5.00,000.00,029.3,028.0,000.0,037.7,031.0,13.4,0000.0,0014.06,0004.91,0003.89
2023-10-23 06:09:00,SystemResetWarning,0824.4,5.00,000.00,029.3,028.0,000.0,037.7,031.0,13.5,0000.0,0014.73,0004.87,0003.90
2023-10-23 06:10:00,SystemResetWarning,0824.3,4.99,000.00,029.3,028.0,000.0,037.7,031.0,13.5,0000.0,0014.01,0004.84,0003.91
2023-10-23 06:11:00,SystemResetWarning,0824.4,5.01,000.00,029.3,028.0,000.0,037.7,031.0,13.5,0000.0,0013.30,0004.89,0003.93
2023-10-23 06:12:00,SystemResetWarning,0824.4,5.01,000.00,029.3,028.0,000.0,037.7,031.0,13.5,0000.0,0013.26,0004.93,0003.94
2023-10-23 06:13:00,SystemResetWarning,0824.4,4.99,000.00,029.3,028.0,000.0,037.7,031.0,13.5,0000.0,0013.63,0005.00,0003.96
2023-10-23 06:14:00,SystemResetWarning,0824.5,4.99,000.00,029.4,028.0,000.0,037.7,031.0,13.5,0000.0,0013.44,0005.06,0003.97
2023-10-23 06:15:00,SystemResetWarning,0824.5,5.01,000.00,029.4,028.0,000.0,037.7,031.0,13.5,0000.0,0013.23,0005.01,0003.97
2023-10-23 06:16:00,SystemResetWarning,0824.5,5.01,000.00,029.4,028.0,000.0,037.8,031.0,13.5,0000.0,0013.13,0005.02,0003.98
2023-10-23 06:17:00,SystemResetWarning,0824.5,5.00,000.00,029.4,028.0,000.0,037.8,031.0,13.5,0000.0,0012.90,0005.01,0003.99
2023-10-23 06:18:00,SystemResetWarning,0824.5,5.00,000.00,029.4,028.0,000.0,037.8,031.1,13.6,0000.0,0013.07,0005.03,0004.01
2023-10-23 06:19:00,SystemResetWarning,0824.5,5.00,000.00,029.4,028.1,000.0,037.8,031.0,13.5,0000.0,0012.40,0005.06,0004.02
2023-10-23 06:20:00,SystemResetWarning,0824.5,5.00,000.00,029.4,028.1,000.0,037.8,031.0,13.3,0000.0,0011.38,0005.09,0004.02
2023-10-23 06:21:00,SystemResetWarning,0824.4,5.00,000.00,029.4,028.1,000.0,037.8,031.1,13.2,0000.0,0011.46,0005.11,0004.03
2023-10-23 06:22:00,SystemResetWarning,0824.4,5.00,000.00,029.4,028.1,000.0,037.8,031.1,13.1,0000.0,0011.51,0005.07,0004.03
2023-10-23 06:23:00,SystemResetWarning,0824.4,5.00,000.00,029.4,028.1,000.0,037.8,031.1,13.1,0000.0,0011.18,0005.02,0004.04
2023-10-23 06:24:00,SystemResetWarning,0824.3,5.00,000.00,029.4,028.1,000.0,037.8,031.1,13.1,0000.0,0010.56,0004.96,0004.03
2023-10-23 06:25:00,SystemResetWarning,0824.3,5.00,000.00,029.4,028.1,000.0,037.8,031.1,13.1,0000.0,0010.41,0004.92,0004.03
2023-10-23 06:26:00,SystemResetWarning,0824.4,4.99,000.00,029.5,028.0,000.0,037.8,031.1,13.1,0000.0,0010.21,0004.90,0004.03
2023-10-23 06:27:00,SystemResetWarning,0824.4,4.98,000.00,029.4,026.1,000.0,037.8,030.9,13.0,0000.0,0010.24,0004.88,0004.02
2023-10-23 06:28:00,SystemResetWarning,0824.3,5.01,000.00,029.3,024.7,000.0,037.7,030.7,13.2,0000.0,0010.76,0004.90,0004.02
2023-10-23 06:29:00,SystemResetWarning,0824.3,5.01,000.00,029.2,024.6,000.0,037.7,030.5,13.4,0000.0,0010.71,0004.89,0004.02
2023-10-23 06:30:00,SystemResetWarning,0824.4,4.99,000.00,029.0,024.9,000.0,037.7,030.3,13.6,0000.0,0010.66,0004.88,0004.02
2023-10-23 06:31:00,SystemResetWarning,0824.4,4.99,000.00,028.9,025.3,000.0,037.6,030.2,13.8,0000.0,0010.89,0004.88,0004.01
2023-10-23 06:32:00,SystemResetWarning,0824.4,5.00,000.00,028.9,025.7,000.0,037.6,030.2,14.1,0000.0,0011.15,0004.90,0004.00
2023-10-23 06:33:00,SystemResetWarning,0824.4,5.00,000.00,028.9,026.0,000.0,037.6,030.3,14.2,0000.0,0011.13,0004.94,0003.99
2023-10-23 06:34:00,SystemResetWarning,0824.4,5.00,000.00,028.9,026.3,000.0,037.6,030.3,14.3,0000.0,0011.27,0004.97,0003.99
2023-10-23 06:35:00,SystemResetWarning,0824.3,5.01,000.00,028.9,026.5,000.0,037.5,030.3,14.3,0000.0,0012.04,0004.98,0003.99
2023-10-23 06:36:00,SystemResetWarning,0824.4,4.99,000.00,028.9,026.7,000.0,037.5,030.4,14.3,0000.0,0012.36,0005.00,0003.99
2023-10-23 06:37:00,SystemResetWarning,0824.4,4.99,000.00,028.9,026.9,000.0,037.5,030.4,14.1,0000.0,0012.44,0005.02,0003.99
2023-10-23 06:38:00,SystemResetWarning,0824.4,5.01,000.00,028.9,027.0,000.0,037.5,030.4,14.1,0000.0,0012.66,0005.01,0003.99
2023-10-23 06:39:00,SystemResetWarning,0824.4,5.02,000.00,028.9,027.1,000.0,037.4,030.4,14.0,0000.0,0012.42,0005.00,0003.99
2023-10-23 06:40:00,SystemResetWarning,0824.4,4.99,000.00,028.9,027.2,000.0,037.4,030.4,13.5,0000.0,0011.79,0004.97,0003.98
2023-10-23 06:41:00,SystemResetWarning,0824.3,4.99,000.00,028.9,027.3,000.0,037.4,030.4,13.3,0000.0,0011.60,0004.95,0003.97
2023-10-23 06:42:00,SystemResetWarning,0824.3,5.00,000.00,028.9,027.4,000.0,037.4,030.5,13.4,0000.0,0011.32,0004.91,0003.97
2023-10-23 06:43:00,SystemResetWarning,0824.3,5.01,000.00,028.9,027.4,000.0,037.4,030.5,13.6,0000.0,0011.60,0004.90,0003.97
2023-10-23 06:44:00,SystemResetWarning,0824.3,5.00,000.00,028.9,027.4,000.0,037.4,030.5,13.7,0000.0,0011.81,0004.88,0003.98
2023-10-23 06:45:00,SystemResetWarning,0824.3,5.01,000.00,028.9,027.5,000.0,037.4,030.5,13.6,0000.0,0012.43,0004.86,0003.96
2023-10-23 06:46:00,SystemResetWarning,0824.3,5.00,000.00,028.9,027.5,000.0,037.4,030.5,13.5,0000.0,0012.06,0004.88,0003.95
2023-10-23 06:47:00,SystemResetWarning,0824.3,5.00,000.00,029.0,027.5,000.0,037.4,030.5,13.3,0000.0,0011.69,0004.89,0003.94
2023-10-23 06:48:00,SystemResetWarning,0824.3,5.00,000.00,029.0,027.5,000.0,037.4,030.6,13.1,0000.0,0011.69,0004.89,0003.93
2023-10-23 06:49:00,SystemResetWarning,0824.3,5.00,000.00,029.0,027.6,000.0,037.4,030.6,13.0,0000.0,0011.56,0004.92,0003.92
2023-10-23 06:50:00,SystemResetWarning,0824.3,5.00,000.00,029.0,027.6,000.0,037.4,030.6,12.8,0000.0,0011.73,0004.95,0003.90
2023-10-23 06:51:00,SystemResetWarning,0824.3,5.00,000.00,029.0,027.6,000.0,037.4,030.6,12.7,0000.0,0011.86,0004.93,0003.89
2023-10-23 06:52:00,SystemResetWarning,0824.2,5.00,000.00,029.0,027.6,000.0,037.4,030.6,12.7,0000.0,0012.54,0004.98,0003.88
2023-10-23 06:53:00,SystemResetWarning,0824.2,5.00,000.00,029.0,027.6,000.0,037.4,030.6,12.6,0000.0,0013.45,0005.01,0003.86
2023-10-23 06:54:00,SystemResetWarning,0824.2,5.01,000.00,029.0,027.6,000.0,037.5,030.6,12.4,0000.0,0013.18,0004.98,0003.85
2023-10-23 06:55:00,SystemResetWarning,0824.1,5.00,000.00,029.0,027.6,000.0,037.5,030.6,12.3,0000.0,0013.15,0004.96,0003.84
2023-10-23 06:56:00,SystemResetWarning,0824.1,4.99,000.00,029.1,027.6,000.0,037.5,030.6,12.3,0000.0,0013.28,0004.96,0003.84
2023-10-23 06:57:00,SystemResetWarning,0824.1,4.99,000.00,029.1,027.7,000.0,037.5,030.6,12.3,0000.0,0014.62,0004.93,0003.83
2023-10-23 06:58:00,SystemResetWarning,0824.1,5.01,000.00,029.1,027.7,000.0,037.5,030.7,12.4,0000.0,0014.67,0004.88,0003.83
2023-10-23 06:59:00,SystemResetWarning,0824.1,5.01,000.00,029.1,027.7,000.0,037.5,030.7,12.6,0000.0,0014.94,0004.85,0003.81
